Weather in Sosnovka

Russia / Tyumen Oblast     56°32′27″N   66°55′17″E
temp.,
°C
wind,
m/s
gust,
m/s
humid.,
%
clouds,
%
prec.,
mm/h
press.,
hPa
HPBL,
m
11 april, sun
sun1123:00+2s4997100 0.0 1040326
02:00+3s4995100 0.0 1039311
05:00+1s499620 0.0 1039203
08:00+2ssw51182100 0.0 1039300
11:00+7ssw61068100 0.0 1038444
14:00+9ssw71062100 0.0 1037551
17:00+9ssw61269100 0.0 1036524
20:00+5ssw61477100 0.0 1035318
12 april, mon
mon1223:00+5sw6148028 0.0 1034299
02:00+4sw6148377 0.0 1033273
05:00+3wsw4109174 0.0 1033184
08:00+5wsw4791100 0.0 1033191
11:00+7wnw3693100 0.0 1034326
14:00+12nw5661100 0.0 10341050
17:00+12nnw4656100 0.0 10351065
20:00+8nnw3575100 0.0 103775
13 april, tue
tue1323:00+6nne3473100 0.0 103855
02:00+4n22725 0.0 103910
05:00+3nnw11760 0.0 104010
08:00+5wnw11680 0.0 1041109
11:00+9w22423 0.0 1040712
14:00+12wsw34373 0.0 10391019
17:00+12wsw45411 0.0 10371024
20:00+8sw46640 0.0 103683
14 april, wed
wed1423:00+6sw48755 0.0 1036120
02:00+5sw49805 0.0 1034135
05:00+5sw41183100 0.0 1033172
08:00+8sw5127683 0.0 1032302
11:00+13wsw796394 0.0 1030598
14:00+16wsw785729 0.0 10281150
17:00+17w5855100 0.0 10261431
20:00+12wsw3675100 0.0 1025100
15 april, thu
thu1523:00+10wsw488295 0.0 1024124
02:00+9wsw48878 0.0 1023138
05:00+7wsw478643 0.0 1022113
08:00+9wsw49685 0.0 1021259
11:00+14w68465 0.0 1020877
14:00+17w67378 0.0 10181495
17:00+17w563851 0.0 10171382
20:00+12wsw345742 0.0 101744